Regional Weather Roundup
Issued by NWS

Home | Current Version | Previous Version | Text Only | Print | Product List | Glossary On
Versions: 1 2 3 4 5 6 7 8 9 10 11 12 13 14 15 16 17 18 19 20 21 22 23 24 25 26 27 28 29 30 31 32 33 34 35 36 37 38 39 40 41 42 43 44 45 46 47 48 49 50
000
ASCA42 TJSJ 271410
RWRPR
PUERTO RICO/U.S. VIRGIN ISLANDS HOURLY WEATHER ROUNDUP
NATIONAL WEATHER SERVICE SAN JUAN PR
1000 AM AST FRI FEB 27 2015

PRZ001-004-271500-
PUERTO RICO

CITY           SKY/WX    TMP DP  RH WIND       PRES   REMARKS
SAN JUAN LMM   MOSUNNY   82  70  65 E14G20    30.11R
AGUADILLA      SUNNY     81  64  57 E15       30.13R
CEIBA          SUNNY     82  66  57 E16G23    30.14R
$$

PRZ006-007-271500-
U.S. VIRGIN ISLANDS

CITY           SKY/WX    TMP DP  RH WIND       PRES   REMARKS
CHARLOTTE AMA  MOSUNNY   82  68  61 SE17G23   30.12
$$

HOURLY WEATHER ROUNDUP FOR THE NEWS MEDIA

CITY           SKY/WX    TMP DP  RH WIND       PRES   REMARKS
ORLANDO        CLOUDY    55  47  74 N15       30.20R
NEW YORK       MOSUNNY   23   6  48 N13       30.39R WCI  11
NEWARK         MOSUNNY   20   7  57 N8        30.39R WCI  10
CHICAGO        MOSUNNY    1  -9  62 NW8       30.55R WCI -13
HARTFORD       SUNNY     20   1  43 N10       30.32R WCI   9
BOSTON         MOSUNNY   17  -5  37 W13       30.34R WCI   4
DALLAS         CLOUDY    27  10  50 NE9       30.46R WCI  17
PHILADELPHIA   PTSUNNY   23  15  71 N8        30.41R WCI  14
LOS ANGELES    MOCLDY    52  50  93 E6        29.84R
WASHINGTON DC  PTSUNNY   25   9  50 N13       30.39R WCI  14


USA.gov is the U.S. government's official web portal to all federal, state and local government web resources and services.